Theta_e
315 314 316 321 321 324 329 335 337 333 331 321 319 321 318 320 321 321 320 320 321 320 320 320 320 320 318 318 319 320 321 320 323 327 328 331 335 333 335 341 342 343 345 342 341 342 343 344 344 344 344 344 343 343 342 341 340 339 339 340 340 340 340 340 340 339 339 339 337 336 335 336 336 336 337 336 335 335 335 335 335 335 334 332 330 328 326 324 322 320 319 318 318 316 317 321 324
318 316 319 324 321 327 336 340 334 328 327 318 316 320 317 320 321 319 320 320 321 320 321 322 321 321 319 318 319 323 325 325 328 331 332 332 332 332 336 343 345 344 344 342 341 342 343 344 344 344 344 344 344 343 342 342 341 341 340 340 340 339 340 340 339 339 339 338 337 335 335 335 334 334 335 335 334 334 334 334 334 334 333 332 330 328 326 325 322 320 317 313 311 311 314 319 323
320 320 322 325 326 329 339 340 328 325 324 316 314 319 319 320 321 319 320 318 319 320 320 322 320 320 319 319 319 322 324 328 331 330 332 332 330 333 337 343 346 345 343 342 341 341 343 344 344 344 344 344 344 343 343 342 342 341 341 340 339 339 339 339 339 338 338 338 336 334 334 334 333 332 333 333 332 333 333 333 333 333 333 332 331 326 325 324 321 320 317 310 304 305 310 315 319
322 324 323 325 337 338 338 336 331 329 321 318 317 317 321 321 321 320 320 319 319 320 319 320 319 317 319 321 319 320 321 326 332 330 332 334 332 334 339 343 345 344 343 342 341 340 342 343 343 344 345 344 344 344 343 343 342 342 341 340 339 339 339 339 339 338 336 336 336 334 333 333 332 330 331 331 331 333 333 332 332 332 332 332 329 326 325 323 321 320 319 310 301 302 304 307 309
321 323 323 324 340 337 331 330 332 330 317 323 322 316 322 320 321 320 319 320 318 320 319 319 318 316 320 321 320 324 322 322 331 333 334 335 334 336 339 342 344 345 343 342 341 340 340 341 343 344 344 344 344 344 344 343 342 342 341 340 339 339 339 340 339 338 336 335 335 333 331 331 331 329 329 329 329 332 332 331 332 331 330 329 328 326 327 324 321 320 319 311 301 300 300 301 301
322 324 324 326 331 327 332 328 322 321 315 325 322 315 321 319 321 319 318 318 317 319 318 319 318 320 322 323 324 327 326 323 329 332 333 336 337 337 339 342 344 344 343 342 341 341 341 341 342 343 344 343 344 343 343 343 343 343 341 340 339 339 339 339 339 338 335 333 334 333 330 329 330 329 329 329 330 332 331 331 330 329 328 329 329 328 327 323 321 318 318 312 301 299 300 300 300
323 326 330 335 332 327 335 327 317 320 318 321 320 318 320 318 320 318 318 317 316 318 318 318 318 321 321 321 324 327 330 328 331 333 334 337 339 337 338 341 343 343 343 343 342 342 343 342 341 342 343 344 344 343 343 342 342 342 341 340 339 339 339 339 338 336 335 333 333 332 330 329 330 329 328 329 330 331 331 330 328 327 329 330 329 327 325 322 319 315 316 313 302 299 300 300 301
324 327 334 342 337 332 333 323 319 324 321 317 319 320 319 319 320 316 318 317 317 316 317 318 318 322 318 319 322 324 331 332 333 333 335 337 339 337 338 341 342 343 343 344 344 343 344 343 341 341 343 343 344 343 343 343 342 342 341 340 340 339 339 339 338 336 334 332 332 332 331 331 330 328 329 331 331 331 332 330 327 328 330 330 328 326 323 321 318 312 312 312 302 299 300 301 302
324 328 334 337 332 329 326 320 318 320 320 319 319 320 320 321 320 316 317 317 317 317 318 317 319 324 318 319 320 319 328 333 334 334 334 335 338 339 339 342 342 344 344 344 343 343 343 343 342 341 341 343 344 343 343 343 343 342 341 341 340 340 339 339 339 337 335 333 333 332 333 332 331 330 331 333 332 332 332 330 329 331 330 329 329 325 323 321 319 313 310 310 303 299 301 301 302
327 326 331 336 329 324 321 317 317 318 318 320 319 319 319 319 319 317 317 317 318 318 318 317 319 322 318 318 318 317 324 331 334 334 335 333 336 340 340 342 342 344 343 342 342 342 342 342 342 341 341 342 343 343 343 343 343 342 341 341 340 339 339 339 339 338 337 335 334 334 334 333 333 332 333 333 332 332 332 331 331 332 331 330 329 326 325 323 319 315 309 309 304 299 301 302 302
334 329 336 339 327 320 320 319 318 319 318 319 318 319 319 319 319 317 318 317 318 319 317 318 317 317 317 317 316 316 321 328 331 333 335 333 332 336 340 341 341 342 342 341 340 340 340 339 339 340 341 342 342 342 342 342 342 342 341 341 340 340 339 338 338 338 337 336 335 336 335 334 334 334 334 333 332 332 332 332 331 331 331 330 329 328 326 323 320 316 310 307 304 299 300 302 302
332 332 339 330 322 320 321 322 319 319 318 318 318 318 319 320 320 317 318 317 318 319 317 318 316 316 318 317 315 313 316 323 329 332 334 333 330 331 336 339 340 340 340 341 340 339 339 337 338 340 341 341 342 342 341 341 341 341 341 340 340 340 339 338 338 338 337 336 336 336 335 335 335 335 334 333 333 332 332 333 332 331 331 330 330 329 327 324 320 317 311 307 303 300 300 301 302
328 330 336 325 325 326 323 323 321 321 318 319 319 318 318 318 318 317 319 318 318 320 317 317 316 317 317 316 315 312 312 317 327 332 332 332 329 328 330 334 338 338 338 339 340 340 339 338 339 341 341 340 341 341 340 340 341 341 340 340 340 340 339 338 337 337 337 336 336 335 335 335 335 335 334 334 333 333 333 333 332 332 331 330 330 329 328 325 320 317 313 308 303 299 300 301 302
328 328 330 325 327 326 325 323 321 324 318 318 318 317 319 317 317 318 320 319 318 319 317 315 316 318 316 314 316 315 312 312 324 331 330 331 327 326 327 331 335 337 337 337 339 339 339 339 340 341 341 340 340 340 340 339 339 340 340 340 340 340 339 338 337 337 336 335 335 334 334 334 334 334 334 334 334 333 333 332 333 332 331 330 329 329 328 326 321 317 316 312 306 300 299 300 301
326 329 329 324 325 321 323 323 324 327 318 317 318 316 319 316 318 319 320 319 317 316 316 314 315 317 317 317 319 318 312 310 322 329 329 328 324 323 324 327 331 333 335 334 336 338 338 338 339 340 339 339 339 339 338 338 339 339 340 340 339 339 339 338 337 336 334 333 333 333 333 333 334 334 333 333 333 333 333 332 333 332 331 330 329 329 328 326 323 319 318 317 312 306 301 299 300
325 335 332 322 322 318 319 322 325 325 318 318 318 317 320 316 319 319 317 318 317 315 316 315 314 316 317 319 317 314 311 312 322 328 325 325 323 321 320 321 324 325 327 328 331 335 338 338 339 339 338 338 338 337 337 337 337 337 338 339 338 338 339 338 337 336 334 332 332 332 332 333 333 333 333 333 333 333 333 332 332 332 331 330 329 328 327 326 325 323 322 320 317 313 307 302 299
333 341 332 321 321 317 316 320 324 324 319 319 317 317 320 316 318 317 315 318 317 316 316 314 312 313 315 315 312 311 312 313 319 325 324 323 324 321 319 318 319 319 320 322 325 331 334 335 338 338 338 339 338 338 338 338 338 338 338 338 338 338 338 338 337 336 335 333 332 332 332 332 332 332 333 332 333 333 332 332 332 332 331 330 329 328 327 327 326 325 324 322 319 317 314 310 304
339 337 326 320 321 318 318 320 322 323 320 319 317 318 320 317 318 317 316 318 316 316 315 313 311 311 311 311 312 312 313 313 315 321 322 321 321 319 318 318 318 318 318 319 321 326 329 331 335 337 338 338 338 339 338 339 340 339 338 337 337 337 337 337 337 336 334 334 333 331 331 332 334 334 334 333 333 333 333 332 332 331 331 330 329 328 328 327 326 326 325 323 321 319 317 316 312
331 333 326 320 322 319 318 320 319 320 319 319 319 319 320 318 318 317 317 318 316 317 315 313 314 312 311 311 312 313 314 314 315 316 317 316 317 316 317 317 317 318 318 318 318 320 324 328 332 334 337 337 337 338 338 339 339 338 338 337 337 336 337 336 336 335 334 334 334 332 332 334 336 335 335 334 333 333 333 332 332 331 331 330 329 329 328 327 326 325 325 323 321 320 318 318 317
326 334 328 318 321 319 316 320 319 319 320 320 320 319 319 318 318 317 317 318 316 317 316 316 317 313 312 312 311 313 313 314 314 314 314 314 315 315 316 316 317 317 317 318 317 317 319 325 329 331 335 336 337 337 337 338 337 337 337 337 337 336 336 335 335 335 335 336 335 334 334 336 336 336 335 334 334 333 332 332 332 331 331 330 330 330 328 327 326 325 325 324 322 321 319 319 318
325 330 326 318 320 319 317 320 320 320 320 320 320 318 318 317 317 318 317 318 318 318 317 318 318 313 313 312 310 311 312 313 313 314 314 314 314 314 315 316 316 317 317 318 318 317 316 320 325 329 333 335 336 336 336 336 336 337 338 337 337 337 336 336 336 336 337 337 336 336 336 336 336 335 335 334 334 333 332 332 331 331 331 330 330 330 329 327 326 325 325 325 323 321 320 319 318
323 323 322 319 320 320 318 320 321 320 319 320 319 317 317 317 317 319 318 318 320 319 316 318 316 312 313 312 309 310 310 310 312 312 313 314 314 313 314 315 315 316 316 317 317 317 316 316 320 326 331 335 335 335 336 336 336 337 338 338 338 338 338 337 337 337 336 337 336 336 335 336 335 335 335 334 334 333 332 332 331 330 330 330 330 330 330 328 327 326 325 325 324 322 320 319 318
324 321 319 320 320 319 318 320 321 319 319 319 318 317 317 317 318 318 318 318 319 316 313 314 313 310 311 310 309 310 309 309 310 311 312 313 313 313 313 314 314 315 315 316 316 317 317 316 316 320 329 334 335 335 335 335 336 337 337 338 339 338 338 337 337 336 336 336 336 335 335 335 335 335 335 334 334 334 333 333 332 331 330 330 330 330 330 329 328 326 325 325 324 323 322 321 320
323 321 319 320 319 318 319 321 320 319 319 317 317 316 317 318 317 317 319 317 315 313 310 309 309 309 310 310 310 309 308 309 310 311 311 313 313 312 313 313 313 314 315 316 315 316 318 319 316 316 326 334 334 335 335 335 336 336 336 337 338 337 337 336 335 335 336 335 335 335 335 335 335 335 334 334 333 333 332 333 333 331 330 329 330 330 330 330 328 326 326 326 325 324 323 322 321
322 320 319 320 320 319 321 322 320 318 318 317 316 317 319 319 316 317 318 315 313 311 309 308 309 309 310 312 311 308 308 309 310 311 311 312 312 312 312 312 313 314 315 315 314 316 319 321 319 316 324 333 333 334 334 334 336 335 336 336 336 336 335 334 334 334 334 334 333 333 334 334 334 334 334 334 333 332 332 332 332 332 331 330 330 330 330 330 328 327 327 326 325 325 323 322 321
319 319 319 319 319 319 320 321 320 319 318 317 317 318 320 319 316 316 317 314 312 311 311 311 310 311 312 312 310 307 307 308 310 311 310 311 311 311 311 312 313 314 314 314 314 317 320 321 320 318 325 332 331 332 333 334 336 335 335 335 335 335 333 333 333 333 333 333 332 332 332 332 332 332 333 333 333 332 331 331 332 331 331 330 330 329 329 329 328 327 327 326 326 325 322 321 320
317 319 319 319 320 319 318 319 320 319 318 318 317 318 319 317 315 317 316 311 311 312 312 311 312 312 311 310 309 307 307 308 309 310 309 309 309 310 310 311 313 314 314 315 316 318 320 322 322 321 326 328 328 331 333 334 335 334 334 333 333 333 332 332 332 332 332 332 331 331 331 330 330 330 331 333 332 331 331 331 330 330 330 329 329 329 328 328 328 327 327 326 326 325 323 321 321
317 318 319 320 321 319 318 319 319 318 317 318 318 317 317 315 315 318 315 310 311 312 312 311 312 312 310 311 309 306 306 308 309 309 308 308 309 309 310 311 313 314 315 316 316 317 320 323 324 324 326 326 328 332 333 333 333 332 331 331 331 330 330 330 330 330 330 330 329 329 329 329 328 328 329 331 331 331 330 330 329 329 329 328 328 328 328 327 327 326 326 326 325 325 324 322 321
318 318 319 323 322 320 320 318 318 318 317 318 317 316 319 316 315 318 315 310 311 312 312 312 311 311 311 311 310 307 306 307 308 307 307 308 308 309 310 311 313 315 316 316 317 318 320 323 325 327 327 328 330 331 332 331 330 329 329 329 328 329 329 329 328 328 328 328 327 328 328 327 327 327 327 329 329 329 329 329 329 328 327 327 327 327 327 326 325 325 324 324 323 323 323 322 321
319 317 318 323 323 325 322 317 318 317 316 318 316 319 326 323 316 315 312 310 312 313 312 312 311 311 311 310 310 309 306 306 307 306 307 307 308 309 311 312 314 316 316 317 318 317 320 323 325 327 327 328 329 330 330 329 329 328 327 327 327 328 328 328 327 327 327 326 326 326 326 326 326 326 326 327 327 327 326 326 326 325 324 325 326 325 325 324 323 323 322 321 321 321 321 321 321
320 319 322 323 321 330 326 316 318 318 315 317 317 319 325 325 317 311 311 311 312 313 312 312 311 310 310 310 310 310 307 305 306 306 306 307 307 309 313 314 314 316 317 317 318 318 320 323 324 326 326 327 328 328 328 328 327 327 326 326 326 326 326 326 325 325 325 324 324 324 324 324 324 324 325 325 325 324 324 323 322 321 321 322 322 321 322 321 320 320 318 319 319 319 319 319 320
320 319 330 328 320 333 329 314 318 318 314 314 317 319 321 322 317 311 311 311 312 314 312 311 311 310 310 310 309 309 307 305 306 306 306 306 307 310 314 315 315 316 317 317 317 318 320 322 324 325 325 326 326 326 327 326 326 326 325 324 325 325 324 324 323 322 322 322 322 321 321 322 322 322 323 323 322 321 320 319 318 317 318 318 317 317 316 316 316 315 314 315 316 315 315 315 315
329 321 329 331 322 328 325 316 318 318 316 314 315 320 321 321 316 312 311 311 312 313 312 311 311 310 309 309 308 308 307 306 305 305 306 306 307 311 314 314 315 316 317 317 317 319 321 321 323 324 324 325 324 324 325 325 324 323 323 323 324 323 322 322 320 320 320 320 320 319 320 320 320 320 321 321 321 319 318 317 316 315 315 315 314 313 311 310 310 310 308 308 309 309 310 310 311
335 323 322 328 325 323 322 321 319 316 317 315 314 317 319 320 315 312 312 312 312 313 312 311 310 310 309 309 308 307 307 307 306 304 306 305 305 310 314 315 315 316 316 317 317 318 320 320 321 322 322 322 322 322 323 322 321 322 322 321 321 320 319 319 319 319 319 319 318 317 318 318 318 318 318 319 319 317 316 315 314 313 313 313 312 310 308 305 303 302 301 300 302 304 306 307 308
336 328 325 328 327 323 322 324 320 316 317 317 316 315 316 317 315 313 311 311 312 312 311 310 310 310 309 309 308 307 307 307 305 304 306 305 305 309 314 315 315 315 316 317 317 318 319 319 319 320 320 321 321 320 320 319 320 321 319 318 318 317 317 316 316 317 316 316 316 315 316 315 315 315 315 315 316 314 313 313 312 311 311 311 309 307 305 303 299 296 296 296 297 299 302 305 305
332 331 332 330 326 325 323 323 320 317 316 317 317 316 316 316 315 315 311 311 311 311 311 311 310 310 309 309 308 307 308 307 304 304 305 305 305 310 314 315 314 315 315 316 316 316 318 317 316 315 315 318 318 317 318 317 317 316 314 313 313 312 312 312 312 312 312 312 313 313 313 312 312 312 312 312 313 312 311 310 309 309 309 310 309 307 305 303 300 296 294 294 295 295 297 302 305
324 324 327 327 324 325 325 323 319 317 317 320 319 317 317 316 317 318 313 310 311 311 311 311 312 311 309 309 308 307 307 306 303 304 305 304 305 309 314 314 313 312 312 313 314 314 314 316 316 312 310 313 315 315 315 316 316 313 311 310 309 307 309 310 309 308 309 309 309 311 311 310 310 310 310 310 309 308 306 305 305 306 307 307 306 305 304 303 300 296 294 293 294 294 294 297 303
321 321 322 324 324 324 323 321 319 317 318 323 323 318 320 319 318 319 316 311 311 311 311 311 311 311 310 309 308 308 308 305 303 304 304 304 304 307 312 313 312 311 311 312 313 312 311 312 314 311 307 308 311 313 315 315 316 314 312 310 308 306 306 308 308 307 307 308 308 309 309 309 309 307 306 305 303 302 300 300 300 302 304 305 305 304 302 300 297 295 293 292 292 292 292 293 297
321 323 322 324 328 327 324 322 319 317 319 325 327 321 321 321 318 319 318 315 312 311 311 311 311 311 310 310 308 309 309 306 304 304 303 304 304 306 309 310 312 312 310 311 311 310 310 310 310 308 308 309 310 312 315 315 313 313 313 310 309 307 304 305 306 304 306 307 306 307 306 305 305 302 301 299 298 297 296 295 295 296 298 299 299 298 296 294 292 292 292 291 291 290 291 292 293
324 324 322 326 329 325 325 325 320 318 318 321 324 321 318 317 317 318 318 316 314 312 311 311 312 312 311 310 309 309 308 305 305 304 303 303 303 305 307 307 310 311 309 309 310 309 308 309 309 309 309 311 311 311 313 312 310 309 309 308 307 306 302 302 302 301 303 303 302 302 301 300 299 297 296 295 294 293 293 293 292 293 293 293 293 292 291 290 290 290 290 290 290 290 289 290 291
329 327 324 326 326 323 324 325 322 322 324 322 319 322 324 322 319 319 318 317 316 314 313 312 313 315 313 311 309 308 306 305 304 304 303 303 303 304 305 306 309 310 308 309 309 309 308 308 310 311 311 311 311 310 310 311 309 306 304 302 302 301 298 298 299 297 297 298 298 297 296 295 294 293 293 292 293 292 292 292 292 292 291 291 291 291 290 289 289 289 289 290 290 289 289 289 290
328 330 327 324 323 324 324 325 325 328 332 326 320 327 336 334 326 322 322 321 320 318 316 313 313 316 316 312 310 308 306 305 304 304 303 303 302 303 304 305 307 309 308 308 309 309 309 308 310 312 312 311 310 309 310 310 310 307 304 301 298 296 294 294 294 293 293 294 293 292 292 292 292 292 292 292 292 292 291 291 291 291 291 290 290 290 289 289 289 289 289 289 289 289 289 289 288
326 329 329 325 323 323 323 324 324 331 334 325 321 329 334 329 324 324 324 324 324 322 319 316 314 315 315 312 310 308 306 305 304 303 303 303 302 302 303 304 306 308 307 307 308 308 309 309 309 310 311 310 308 308 307 309 309 306 305 301 297 294 292 290 291 291 291 291 290 290 290 290 291 291 291 291 291 291 291 291 290 290 290 290 290 290 289 289 289 288 289 289 289 289 290 289 288
330 329 329 328 324 324 326 324 325 332 333 326 325 327 327 325 324 323 322 323 324 322 320 317 314 314 314 312 309 307 306 304 304 304 303 303 303 302 303 303 305 307 307 306 306 307 308 307 306 307 308 306 306 306 305 306 307 304 301 298 295 293 291 289 289 289 289 289 289 290 290 290 290 290 290 290 290 290 290 290 290 290 290 289 289 289 289 288 288 288 288 289 289 288 289 288 288
329 327 328 330 327 330 330 327 328 329 327 328 328 325 325 329 330 326 323 323 324 323 321 318 315 314 313 312 309 307 305 304 303 304 304 303 302 302 303 303 304 306 306 305 305 306 305 306 305 305 305 304 304 304 303 302 304 302 298 295 292 290 289 288 288 288 289 289 289 289 289 289 289 289 289 289 289 289 289 289 290 290 289 289 289 289 289 289 289 289 288 288 289 288 287 288 287
325 326 330 333 332 332 330 327 328 328 326 328 328 326 327 329 331 329 325 325 326 323 321 319 316 314 312 310 309 307 306 305 304 303 302 302 302 302 302 303 303 304 305 305 305 305 304 304 304 304 303 303 302 301 300 299 299 299 296 293 290 288 288 288 288 288 288 289 288 288 288 288 288 288 288 288 288 289 289 289 289 289 289 289 289 289 289 289 289 289 288 288 288 287 287 287 286
324 328 333 335 333 333 333 329 327 328 328 327 328 327 326 329 334 332 328 330 329 324 322 321 318 315 311 310 308 307 306 304 304 303 301 301 302 302 302 302 302 302 303 304 304 304 304 303 302 302 301 300 300 299 298 297 297 298 296 293 290 288 288 288 288 287 287 288 288 287 287 287 287 288 287 288 288 288 289 289 289 289 289 290 289 289 289 289 288 288 288 287 287 287 286 286 285
325 332 333 332 332 332 331 327 325 329 330 329 328 325 323 328 333 330 327 328 325 325 324 323 322 317 311 310 307 306 305 304 304 303 301 300 300 300 300 300 301 301 301 303 303 302 303 302 301 300 299 299 299 299 299 298 296 296 293 291 290 289 288 288 288 287 287 288 287 287 287 287 287 287 287 288 288 288 289 289 289 289 289 289 289 289 289 288 288 287 287 287 286 286 285 285 285
325 330 330 328 329 330 330 327 327 328 328 327 324 323 324 326 326 323 324 322 321 324 325 322 323 319 311 309 307 305 304 304 303 303 302 300 298 298 298 299 299 299 300 301 301 301 302 302 300 300 299 298 299 299 298 298 297 294 291 290 289 288 288 288 288 288 288 288 287 287 287 287 287 287 287 288 288 288 289 289 289 289 289 289 289 288 288 287 287 287 287 286 286 285 285 284 284
323 325 328 329 328 331 333 331 329 329 329 324 319 322 326 327 326 324 323 322 321 322 324 322 322 319 313 308 306 305 304 303 303 302 301 299 298 298 298 298 297 298 300 300 300 300 301 300 300 299 299 298 298 298 298 297 296 293 290 289 289 288 288 288 288 288 288 288 288 288 287 287 287 287 288 288 288 288 289 289 289 289 289 288 288 288 288 287 287 286 286 285 285 285 284 284 284
320 322 326 329 331 336 337 333 332 333 332 323 317 323 330 331 329 323 319 319 319 318 319 318 316 313 311 307 305 305 304 303 302 302 300 298 297 298 297 297 297 298 299 299 299 299 299 299 299 299 298 297 297 298 297 296 295 292 289 289 288 288 289 288 288 288 288 288 288 288 288 288 288 288 288 288 288 288 289 289 289 289 288 288 287 287 287 286 286 286 285 285 285 284 284 284 284
320 324 326 327 330 333 332 331 329 327 329 325 321 326 331 328 322 318 316 315 314 314 314 315 313 310 309 307 305 304 303 302 302 301 300 297 296 297 297 297 297 297 298 298 297 297 298 298 298 298 298 297 297 296 296 295 293 290 289 289 289 289 288 288 287 287 288 288 288 288 288 288 288 288 288 288 288 288 289 288 288 288 287 287 287 286 286 286 286 285 285 285 284 284 284 284 283
322 322 324 324 326 328 329 330 325 323 327 327 325 327 329 325 321 319 318 315 315 316 313 312 312 309 308 307 304 303 303 302 301 300 299 297 296 296 296 296 297 297 297 297 297 297 297 297 297 297 297 296 296 295 295 293 291 290 289 289 289 288 288 288 287 287 287 287 288 288 288 288 288 288 288 288 288 288 288 288 288 287 287 287 286 286 286 286 286 285 285 285 284 283 283 283 283
322 323 323 321 325 329 331 332 329 328 330 328 326 328 329 328 325 321 317 316 318 319 315 312 310 308 308 306 304 303 302 301 300 299 298 296 296 296 296 296 296 296 297 297 296 296 297 297 297 297 296 295 294 294 293 292 290 290 289 289 289 288 288 287 287 287 287 287 287 288 288 288 288 288 288 288 288 288 287 287 287 287 287 286 286 286 286 286 286 285 285 284 283 283 283 283 282
322 325 323 324 330 330 328 330 331 332 332 330 330 328 326 325 326 324 319 320 321 319 316 313 310 309 307 305 304 303 302 301 300 299 298 296 296 296 296 296 296 296 297 297 296 296 296 296 296 296 295 294 294 293 292 291 290 290 290 289 289 288 288 287 288 288 287 287 288 288 288 288 288 288 288 288 288 287 287 287 287 287 287 286 286 286 286 286 285 285 284 283 283 282 282 282 282
322 322 319 324 330 329 328 328 329 331 332 332 332 329 326 324 326 326 323 324 324 319 316 314 311 308 306 304 304 302 301 301 299 299 298 297 296 296 295 296 296 296 296 296 296 295 295 295 295 295 294 294 293 292 292 291 291 290 290 290 289 289 288 288 288 288 287 288 288 288 288 288 288 288 288 288 287 287 287 287 287 287 286 286 286 286 286 285 285 284 283 283 282 282 282 282 282
321 322 321 323 323 323 326 326 326 331 333 333 331 328 328 326 323 323 323 324 323 319 318 317 310 307 306 304 304 302 301 301 299 299 298 297 296 295 295 295 295 296 296 296 295 295 295 294 294 294 294 293 293 292 292 291 291 291 290 290 289 289 289 288 288 287 287 288 288 288 288 288 288 288 288 287 287 287 287 287 287 286 286 286 286 286 285 285 284 284 283 282 282 282 282 282 282
319 320 322 322 321 323 327 326 325 326 328 332 331 327 327 324 320 320 320 321 320 317 319 318 313 308 307 304 303 302 301 300 299 299 298 296 295 294 294 294 294 295 295 295 295 294 294 294 293 293 293 293 292 292 292 291 291 290 290 289 289 289 288 288 287 287 288 288 288 288 288 288 288 288 287 287 287 287 287 287 287 286 286 286 286 285 285 284 284 284 283 283 282 282 282 281 281
Wind_Speed
9 9 7 8 8 9 7 3 3 3 4 4 2 3 3 4 4 5 5 3 3 2 2 1 2 3 5 8 9 9 6 2 1 3 2 3 8 7 8 11 15 17 16 16 18 17 16 15 13 13 12 11 11 11 12 12 12 11 11 11 11 11 11 12 12 12 11 12 12 12 12 12 13 13 13 13 13 12 12 13 13 13 15 16 17 18 18 18 17 16 15 13 12 11 9 7 7
9 8 7 7 6 4 2 3 4 2 5 4 1 3 3 4 6 5 5 4 2 4 1 2 4 5 7 9 8 10 8 6 5 5 4 8 9 7 10 14 16 15 14 15 17 17 16 15 13 13 12 11 11 11 12 12 12 11 11 10 10 10 11 11 11 11 11 11 11 12 12 12 12 13 12 12 12 12 11 12 13 14 16 17 17 18 19 18 17 16 15 14 12 11 9 8 6
9 8 9 8 3 2 1 3 5 3 5 4 2 1 3 6 6 5 5 5 3 4 2 4 5 4 6 8 6 7 4 4 6 4 4 6 5 5 9 14 16 13 12 14 17 17 15 15 13 12 11 11 10 10 11 11 11 11 10 10 10 10 11 11 11 11 10 10 10 11 12 12 12 12 12 12 12 11 11 12 13 15 16 17 17 18 19 19 17 16 16 14 12 11 10 9 8
8 8 10 8 3 3 3 3 3 5 4 4 2 1 4 7 7 6 4 3 1 1 3 3 4 3 7 8 3 5 3 1 5 4 3 4 5 7 11 15 15 13 12 13 16 17 15 14 13 13 11 10 11 10 10 10 10 10 10 10 9 10 10 10 10 10 10 9 10 11 12 12 12 12 11 11 12 11 12 13 13 14 15 15 15 17 19 19 18 17 16 14 12 12 11 10 9
8 7 7 3 3 2 2 2 2 5 2 4 3 2 5 7 7 6 3 2 4 5 3 2 3 2 6 4 1 3 1 1 5 7 5 6 8 9 12 15 15 13 13 13 16 17 14 14 13 12 12 11 11 11 11 10 10 10 10 9 9 10 10 10 10 10 10 9 9 11 12 12 11 11 10 10 11 10 12 12 13 12 12 13 14 16 18 19 18 17 16 15 13 12 12 11 11
10 8 2 2 2 1 3 3 3 5 0 3 5 3 6 7 7 7 3 2 3 5 5 4 3 4 5 3 3 3 2 1 3 5 6 8 8 9 13 15 15 14 14 15 15 14 13 14 13 12 12 11 11 11 11 11 11 11 10 10 8 8 9 10 11 11 11 10 9 10 11 11 10 10 10 10 11 10 11 11 11 11 12 13 14 16 18 19 19 18 16 14 13 12 13 12 12
10 7 2 3 2 1 5 3 3 3 2 2 6 5 7 7 7 8 5 3 4 4 5 4 5 6 3 1 3 5 7 5 4 5 8 9 8 10 15 15 15 15 16 16 13 13 13 12 13 12 12 11 11 11 10 10 12 11 10 10 9 9 8 10 11 12 11 11 10 9 9 10 10 10 10 11 10 10 11 10 11 11 13 13 14 17 18 19 19 19 16 14 13 13 13 14 13
5 3 1 4 3 3 5 3 3 3 1 2 4 5 7 7 6 7 5 3 1 2 4 2 6 7 2 2 4 4 11 12 8 9 10 10 11 14 18 17 15 14 16 16 13 14 13 12 12 12 11 11 11 11 11 11 11 11 10 9 10 9 8 10 11 11 12 11 11 9 9 9 9 10 11 11 10 10 10 10 10 11 12 14 16 18 18 19 20 20 17 13 13 14 14 15 14
2 1 2 4 2 3 4 3 2 3 2 2 3 3 5 5 5 6 5 4 3 2 4 3 5 6 1 5 4 1 9 11 10 11 9 9 14 19 20 18 16 15 16 15 14 13 13 12 11 11 12 11 11 11 11 11 11 10 10 10 10 9 9 10 11 11 11 11 10 10 9 8 9 10 10 10 10 9 10 10 11 11 11 14 16 17 19 20 20 20 18 14 13 14 14 15 15
2 1 2 3 2 4 3 1 1 2 3 4 4 3 3 2 4 6 6 5 4 4 3 3 7 6 5 5 2 1 5 8 12 11 8 9 13 17 19 18 16 15 15 14 13 11 11 11 10 11 12 11 11 10 11 10 10 10 10 10 9 9 9 10 11 11 10 10 10 9 9 9 9 9 9 9 9 9 10 11 11 10 11 13 15 16 18 20 20 19 18 14 13 13 14 15 15
3 3 2 4 4 3 2 2 2 3 4 4 2 1 2 2 5 5 6 5 3 5 3 4 7 5 4 4 1 2 6 8 11 10 7 7 10 14 17 17 16 15 14 13 11 9 8 9 9 11 14 13 11 10 10 10 10 10 10 10 10 9 9 10 12 11 10 10 9 9 8 8 8 9 9 8 9 9 10 10 9 8 9 11 13 15 17 19 19 19 18 15 13 13 14 14 15
3 4 4 5 2 1 3 5 4 5 4 4 1 2 0 4 5 3 6 6 4 6 3 3 4 4 5 2 2 2 6 7 9 9 6 5 8 11 14 15 16 15 15 13 12 10 7 6 9 13 15 14 12 11 10 10 10 10 10 10 10 9 9 10 11 11 10 10 8 8 7 7 7 8 8 8 8 8 8 8 8 7 8 10 13 14 16 18 19 19 19 16 13 12 13 13 14
3 1 5 2 2 3 4 5 4 4 3 2 3 2 1 6 3 2 6 6 4 6 2 2 2 5 5 1 1 1 4 5 7 9 6 5 6 9 11 14 15 15 15 14 14 12 8 7 9 12 14 13 12 10 10 10 9 10 9 9 9 9 9 9 10 11 10 9 8 7 6 6 7 7 7 7 7 7 7 7 7 7 7 9 11 13 15 17 19 19 19 17 14 13 13 13 13
2 1 5 1 1 3 4 4 3 4 1 4 2 1 2 3 3 4 7 7 4 3 1 1 4 6 3 2 0 2 1 2 6 9 5 4 6 8 10 12 14 15 13 13 14 13 10 9 9 10 11 10 9 8 8 7 8 8 9 9 9 9 9 8 9 10 9 8 7 6 5 6 6 6 6 6 6 6 6 6 7 6 6 8 10 12 14 17 18 18 18 18 16 14 13 12 12
2 1 4 2 3 2 2 3 4 5 1 3 1 2 4 1 3 6 6 7 0 2 2 4 4 4 3 4 3 4 1 2 8 9 6 6 8 10 11 10 11 12 12 10 11 13 12 11 10 9 8 8 7 6 6 6 6 7 7 8 8 8 8 9 9 9 8 6 5 4 4 4 5 5 5 5 5 5 5 6 6 5 5 7 9 11 13 15 17 17 17 18 18 15 13 12 12
3 3 5 3 2 1 1 1 5 5 2 4 2 3 5 3 2 5 2 6 2 2 3 4 3 3 3 4 4 4 3 5 11 11 8 9 11 12 11 11 10 9 9 8 9 11 12 11 12 11 10 8 6 5 5 6 6 6 7 7 7 8 8 8 9 8 6 5 4 3 3 3 4 4 4 4 5 6 5 4 4 4 4 5 7 9 11 13 14 15 16 17 17 16 14 12 11
4 4 5 3 1 1 1 1 3 3 3 4 2 3 5 2 3 2 1 5 5 3 5 3 5 5 4 4 6 5 5 7 12 12 10 11 12 13 12 12 11 10 9 8 9 10 11 12 12 12 12 10 7 6 5 5 5 5 6 8 8 8 8 8 8 7 6 5 4 3 3 2 3 4 4 4 5 6 5 4 4 4 3 3 7 9 9 11 13 13 14 15 15 16 15 13 11
5 3 4 2 0 1 1 1 2 4 5 4 4 3 6 3 1 0 2 5 4 5 6 4 6 7 6 8 8 7 7 10 13 12 11 11 12 13 14 13 12 11 9 7 8 8 9 11 13 13 13 11 9 7 6 5 4 3 4 7 9 8 9 8 8 7 6 5 4 3 3 3 4 4 4 4 5 5 5 5 4 3 2 3 7 9 9 10 11 11 13 14 14 14 14 14 12
4 3 4 1 3 1 1 3 3 3 6 5 3 4 6 6 3 1 0 1 3 5 3 4 6 5 5 8 10 10 12 14 13 13 13 12 12 12 13 12 11 9 7 6 6 7 8 10 13 15 14 13 12 9 6 6 5 3 3 5 8 9 9 8 7 7 6 5 4 4 4 4 5 3 3 4 4 5 6 6 5 3 2 4 6 7 8 9 10 11 12 13 13 12 12 13 12
2 4 4 3 4 1 2 4 4 2 6 6 2 4 4 3 2 2 2 1 2 5 3 3 4 4 5 6 11 13 14 15 14 14 15 14 13 11 11 10 9 7 6 5 4 5 7 10 12 14 15 14 13 11 9 7 5 4 4 5 7 8 8 8 7 6 6 6 5 5 5 5 5 5 4 4 4 6 6 6 6 4 3 3 4 6 8 9 10 10 10 12 12 11 10 10 10
2 3 4 5 3 3 2 4 5 3 5 7 4 4 2 2 1 3 4 1 1 4 5 5 7 9 8 6 10 14 14 15 13 13 13 13 12 11 10 9 7 6 5 3 3 4 6 9 11 14 16 15 14 13 11 8 6 5 6 6 6 7 8 8 7 6 6 5 6 5 5 5 5 6 6 5 5 5 5 7 6 5 4 3 3 5 7 9 9 8 8 9 10 10 9 9 9
3 1 5 4 4 3 2 3 5 3 5 5 5 4 1 1 0 2 5 3 4 4 4 5 8 11 10 8 10 13 13 13 13 12 12 11 11 10 9 7 5 3 3 3 3 5 6 7 10 13 16 16 16 15 12 8 8 8 8 8 8 9 9 9 9 8 7 6 6 6 6 6 6 6 5 5 6 5 5 6 6 5 4 4 4 5 6 8 8 6 6 7 9 10 10 9 9
3 2 0 2 4 4 2 2 3 4 5 3 4 3 1 2 2 3 6 5 5 5 4 6 10 12 13 11 11 10 10 11 12 12 11 10 10 9 8 5 4 2 1 2 3 5 3 5 8 12 16 18 17 15 12 9 10 11 10 12 12 12 11 11 10 9 8 7 7 7 8 8 8 7 6 5 6 5 5 6 6 4 4 4 5 6 6 6 6 5 5 6 7 9 9 9 9
5 1 2 3 3 4 3 3 2 5 5 3 3 2 1 3 2 2 3 3 4 7 7 11 13 15 15 10 9 9 9 11 13 12 10 10 10 9 7 5 4 2 2 1 2 2 7 7 6 11 17 18 17 15 11 9 12 12 12 14 14 14 14 13 12 11 11 9 8 8 8 9 8 8 8 8 7 6 5 6 8 6 6 6 7 8 5 5 7 6 5 5 4 5 7 7 8
3 1 2 2 1 2 5 4 3 3 3 2 2 1 4 6 3 1 4 6 5 7 8 10 12 12 11 8 8 9 9 12 14 13 11 11 10 9 7 5 4 2 3 3 2 6 7 6 6 10 18 20 17 13 9 11 14 15 15 16 16 16 14 13 12 12 12 10 8 8 8 8 8 8 9 9 9 8 7 7 9 8 8 8 8 8 6 7 8 6 5 4 3 3 4 4 5
1 2 1 1 3 3 4 4 5 5 3 2 1 4 7 5 2 3 5 9 6 7 7 7 9 8 8 7 7 9 8 11 14 14 13 11 9 7 7 5 4 4 4 4 4 6 5 5 6 11 20 20 15 11 11 15 17 17 18 18 17 16 14 14 13 12 11 9 8 7 6 6 7 8 8 9 9 9 11 11 10 9 10 11 10 8 8 9 8 6 5 5 4 3 3 4 3
2 2 3 3 5 5 2 5 6 4 3 4 5 5 6 4 2 3 3 8 7 8 7 6 8 7 7 6 6 9 9 10 13 14 13 11 8 7 7 5 5 5 5 5 5 5 5 7 8 12 18 16 11 12 16 18 18 18 19 18 17 16 15 14 13 12 11 10 8 6 5 4 5 6 6 8 9 10 13 13 12 11 12 11 10 9 9 8 7 7 6 5 3 1 3 5 5
1 3 4 6 5 6 4 6 6 3 2 5 7 4 4 3 2 5 5 8 8 9 8 7 7 6 7 7 6 8 9 10 12 13 11 10 9 7 7 7 7 7 6 6 6 5 6 8 9 11 12 11 13 17 19 19 19 19 19 18 18 18 16 13 11 11 11 11 10 8 7 6 5 6 8 9 10 12 13 13 13 12 11 10 9 8 8 7 7 6 5 3 2 1 4 5 5
2 3 2 7 6 5 7 7 5 5 2 5 6 3 5 3 6 5 8 9 7 9 8 7 7 6 6 6 6 6 9 11 12 12 11 10 9 8 8 7 7 8 7 7 6 7 8 10 11 12 13 14 18 20 20 20 20 19 19 19 19 18 16 13 12 12 12 12 12 10 10 9 9 9 10 11 12 13 13 12 12 10 10 9 9 8 8 8 7 6 5 4 3 3 4 4 4
0 1 1 3 6 5 7 4 6 7 2 4 6 3 6 6 7 3 8 9 8 8 7 6 6 6 6 6 5 5 8 11 11 12 11 11 10 8 9 9 9 9 8 7 8 9 9 11 13 15 18 20 21 21 21 20 19 19 19 19 18 17 15 13 13 13 13 14 13 13 12 11 11 12 12 12 13 14 14 14 13 12 11 10 10 9 9 9 8 8 7 6 7 6 5 4 3
0 1 1 1 2 5 7 0 8 7 1 3 7 1 6 8 6 3 6 8 10 8 7 7 6 6 6 6 6 5 6 10 12 12 11 11 10 8 10 11 10 10 9 9 10 10 10 12 14 17 20 21 22 22 21 21 20 20 19 19 17 15 14 13 14 15 15 16 16 16 14 13 14 14 15 15 15 16 16 17 16 15 13 12 13 12 11 11 11 12 10 8 8 8 7 5 5
1 1 3 2 2 5 6 1 8 7 1 2 6 2 7 8 5 6 5 6 8 8 8 8 7 7 7 6 6 5 5 10 13 12 11 11 9 9 10 11 11 12 11 11 12 13 12 14 14 17 19 19 22 23 22 22 21 20 20 17 15 14 14 15 16 16 17 17 17 17 16 14 15 15 15 15 16 17 18 19 19 18 17 18 19 18 17 15 14 14 12 9 9 8 7 6 7
2 2 3 2 2 4 4 2 4 7 3 1 3 3 4 5 4 7 6 7 7 7 8 9 8 8 8 6 6 5 5 7 10 12 13 11 10 10 11 11 12 13 13 13 15 16 15 15 16 18 20 20 22 23 23 23 22 21 20 17 15 15 16 17 17 17 18 17 17 17 16 14 14 14 14 14 16 18 19 21 21 20 19 19 20 20 20 18 15 15 15 13 11 10 9 9 9
4 0 3 4 3 2 1 4 4 5 6 3 5 4 6 6 4 6 8 8 8 7 9 10 9 9 8 7 7 6 7 6 7 12 14 12 11 11 12 12 13 15 15 15 16 18 18 18 18 19 21 22 21 23 24 25 24 22 20 19 18 18 18 19 19 18 18 18 17 17 16 16 16 17 17 16 18 20 21 21 21 20 19 19 20 21 21 20 19 18 18 18 16 14 12 12 11
2 3 2 3 3 2 3 3 2 6 5 4 5 6 10 11 6 6 8 8 9 10 10 9 10 10 8 8 8 7 8 6 8 14 15 13 12 13 13 13 15 16 16 16 16 18 19 19 20 21 21 22 23 24 25 26 24 23 22 22 21 21 22 22 21 21 22 21 21 20 20 21 22 21 21 21 21 22 21 21 20 19 18 19 21 22 22 21 21 21 21 22 21 20 17 13 12
6 5 4 4 3 4 4 4 5 7 5 5 7 7 10 11 9 8 8 8 9 10 7 6 8 8 8 8 7 8 8 7 11 16 16 14 13 14 15 14 15 17 16 17 17 18 20 20 21 22 22 23 26 26 25 26 25 25 26 26 25 25 25 25 25 25 26 26 25 24 24 24 24 23 22 21 21 21 21 20 19 19 18 18 20 21 21 19 20 20 21 21 21 22 21 17 16
4 3 2 4 4 5 4 3 5 5 4 6 8 8 9 9 9 10 8 8 9 9 8 8 8 8 9 9 9 9 8 7 13 18 17 15 14 15 17 16 17 18 18 18 18 20 22 22 22 22 22 22 24 25 25 25 24 26 28 28 28 27 26 26 27 26 27 27 26 25 24 24 22 22 21 20 21 21 22 22 21 21 20 20 22 22 20 18 18 19 20 21 21 23 24 21 17
6 4 4 4 3 5 5 3 3 3 3 6 5 5 9 9 9 9 5 7 10 12 12 12 11 10 9 10 10 8 6 7 11 15 16 17 15 16 18 19 19 20 20 20 21 21 22 23 22 21 19 20 22 24 24 24 24 26 28 29 29 28 26 27 27 26 26 26 25 23 23 22 21 22 22 22 24 24 25 26 25 24 23 23 23 22 20 19 18 18 20 23 24 25 26 23 17
7 4 2 4 4 4 5 3 2 0 3 4 5 5 8 10 9 9 7 9 11 14 16 15 13 12 10 10 10 8 8 8 9 11 15 18 17 18 20 20 21 22 21 21 23 23 22 23 23 21 20 21 22 23 24 25 27 27 28 29 29 28 27 26 27 26 26 25 24 23 23 23 23 25 26 26 28 28 28 28 28 27 26 24 24 23 22 21 21 21 21 22 23 25 26 24 22
4 4 3 4 4 2 3 5 3 2 2 2 5 6 7 9 8 9 10 10 9 10 13 13 11 12 13 13 12 12 13 12 10 9 12 17 18 19 21 21 22 24 22 22 24 24 24 24 24 24 23 23 23 24 26 28 28 28 28 28 27 27 28 27 28 28 27 27 27 27 26 27 28 29 29 28 29 29 28 28 28 27 26 24 24 24 24 24 23 23 22 22 22 25 26 25 23
3 4 5 4 4 5 6 4 3 3 4 2 3 6 6 7 8 10 8 5 7 8 9 10 10 10 10 10 10 12 13 13 13 11 11 16 19 19 21 22 23 25 24 24 26 26 25 26 26 26 26 26 25 25 27 28 28 29 29 29 28 29 30 29 31 31 30 31 31 31 31 30 30 30 29 28 28 28 27 27 26 26 26 24 24 25 26 25 24 23 23 22 23 24 24 24 22
4 4 7 8 7 7 7 3 4 4 6 3 2 3 6 4 5 9 5 2 6 7 8 12 12 9 8 9 10 9 9 10 11 12 13 16 18 19 21 22 23 25 24 25 26 26 26 26 27 28 28 27 26 25 26 26 26 28 29 31 31 32 30 30 33 34 34 34 34 33 32 31 30 30 29 28 27 27 26 26 26 26 26 25 25 25 25 24 23 22 22 22 23 21 20 22 21
3 5 6 8 8 7 7 3 2 1 5 3 3 1 7 6 4 8 7 6 9 7 7 12 12 9 9 9 9 10 10 9 9 10 13 16 19 20 21 23 24 25 25 24 24 25 25 25 26 27 28 28 27 26 27 27 27 28 29 31 33 34 32 31 33 35 35 35 34 34 32 31 29 29 28 27 26 26 26 26 25 25 25 25 24 24 24 23 22 22 20 21 21 19 19 20 19
4 5 4 6 6 6 6 3 2 3 3 4 2 2 6 9 6 8 8 10 12 10 10 12 10 8 8 7 8 10 11 11 10 10 12 15 19 21 22 23 24 25 25 23 22 23 23 24 23 25 26 27 27 27 28 28 28 29 31 33 33 34 35 35 35 36 35 35 35 33 32 31 29 28 28 27 26 26 25 25 25 25 25 24 23 24 23 22 21 20 19 19 19 18 18 18 17
5 5 5 6 6 5 3 4 1 1 2 5 3 2 4 8 5 4 4 6 10 12 14 13 10 9 8 7 8 8 9 10 11 11 12 16 20 21 22 23 23 25 24 23 22 22 22 22 22 23 25 26 28 29 29 28 29 31 34 35 34 34 36 37 36 36 35 35 35 33 32 31 30 28 27 27 26 25 24 24 23 23 23 23 22 22 21 20 19 18 17 17 16 17 16 14 14
4 3 6 6 4 4 5 4 3 3 2 5 5 3 3 7 4 3 1 3 8 11 12 11 10 10 9 8 7 7 8 8 9 10 13 18 20 21 21 23 23 24 24 23 23 23 22 22 23 25 26 28 30 29 28 27 30 33 36 37 37 36 36 37 36 36 35 35 35 34 32 31 30 29 27 26 25 24 23 23 22 22 22 21 20 20 19 18 17 16 15 15 14 14 13 12 12
5 6 6 6 5 5 4 3 4 2 4 6 9 10 7 6 4 4 4 5 7 7 7 7 6 8 9 8 8 9 8 8 8 8 12 18 20 21 22 23 24 24 24 24 24 24 24 25 27 28 28 29 30 27 26 26 29 34 37 38 40 39 38 38 37 36 35 35 35 34 32 31 29 28 27 25 24 23 22 21 21 21 20 19 19 18 17 16 16 15 14 13 13 13 12 10 10
6 5 5 3 4 5 4 4 4 1 5 6 10 11 9 8 6 3 5 5 5 6 6 7 6 8 10 9 9 9 8 8 9 8 10 15 18 21 22 23 25 25 25 25 26 26 27 28 29 30 29 29 28 26 25 26 28 34 38 39 40 40 40 40 39 38 36 36 36 34 32 31 29 28 26 25 23 21 20 20 19 19 18 18 17 17 16 15 14 14 13 13 12 11 10 9 8
5 5 6 3 2 3 3 2 0 3 6 5 5 6 6 9 8 6 9 10 7 7 6 6 8 9 10 10 9 9 8 9 9 9 9 12 15 19 23 24 25 26 27 27 27 27 28 30 31 30 29 28 27 26 26 27 29 34 38 38 39 39 39 39 39 38 37 36 35 34 32 31 29 27 25 24 22 20 19 19 18 18 17 17 16 16 15 14 13 12 12 12 11 10 9 8 8
5 6 6 5 3 1 3 3 2 4 5 4 2 4 3 5 5 10 15 14 9 6 5 6 8 10 10 10 9 8 9 9 9 9 9 9 14 19 22 24 25 26 27 28 28 28 30 30 31 31 29 27 27 27 27 28 31 35 37 38 38 38 37 37 37 37 36 34 33 32 31 30 28 27 25 23 21 20 19 18 17 17 17 16 15 14 14 13 12 11 11 10 10 9 8 8 8
5 5 6 5 5 4 4 4 3 4 4 4 1 3 4 3 3 7 9 8 5 2 3 4 5 5 6 7 7 8 9 9 8 9 9 10 16 20 21 23 25 26 28 29 28 29 30 31 31 31 30 28 28 28 29 30 34 37 37 37 37 37 36 36 35 35 34 33 32 31 30 28 27 26 24 23 21 19 18 17 16 16 16 15 14 13 12 12 11 10 10 9 9 8 7 7 7
3 2 5 3 5 5 3 3 4 2 2 3 2 3 5 4 4 5 4 5 4 4 4 2 4 3 6 7 7 8 8 8 8 8 8 11 17 20 21 23 24 26 28 29 29 30 31 31 31 31 31 30 29 30 31 33 36 38 37 37 36 35 35 35 35 34 33 32 31 30 29 27 26 25 24 23 20 18 17 17 16 16 15 14 13 12 11 11 10 9 9 8 8 7 6 5 6
2 2 4 4 3 5 2 3 1 2 3 4 3 4 5 3 7 7 5 4 4 4 5 4 4 4 7 7 7 8 8 8 9 9 9 12 17 20 21 23 24 26 28 29 30 31 32 32 32 32 31 31 31 32 34 36 38 38 36 36 35 35 35 35 35 34 32 31 29 28 28 26 25 24 23 22 20 18 17 16 16 16 14 13 12 11 10 9 9 8 7 6 6 5 4 4 5
6 4 6 2 2 1 2 1 3 2 4 4 3 6 5 2 6 4 4 4 8 8 7 5 4 5 8 8 8 8 8 8 8 9 10 13 18 20 22 24 26 27 29 30 31 31 31 32 32 33 33 33 34 34 36 38 38 37 36 35 35 35 35 35 35 34 32 31 30 28 27 26 25 24 22 21 19 19 18 16 15 15 13 12 11 9 8 8 7 6 5 5 5 4 3 3 4
5 4 5 4 2 1 2 2 2 1 4 5 2 6 6 6 6 1 5 8 12 11 8 6 7 9 9 8 8 8 7 8 8 9 9 12 18 22 23 25 26 28 30 30 31 31 31 32 33 33 34 34 35 36 37 38 38 37 36 35 35 35 35 35 34 33 32 32 30 29 27 26 25 23 21 21 20 19 18 16 15 13 12 11 9 8 7 6 5 5 5 4 4 4 3 2 3
2 1 3 2 2 4 4 3 3 3 3 4 3 3 4 6 7 7 10 12 14 12 9 9 12 12 10 9 9 9 9 10 9 10 10 11 18 23 25 27 28 29 31 31 32 31 32 33 33 34 34 34 35 36 37 37 37 37 36 36 36 35 35 34 34 34 33 32 30 29 27 26 24 23 21 20 19 18 17 16 14 13 11 10 9 8 7 6 5 5 5 5 4 4 3 2 2
3 3 5 3 1 2 1 2 2 4 3 3 4 6 5 3 5 9 12 12 13 11 10 11 12 11 10 10 10 10 10 10 10 10 10 12 17 21 24 26 28 29 31 32 32 32 33 33 34 35 35 36 36 36 37 37 36 37 37 37 36 36 35 35 34 34 33 32 30 29 27 25 24 23 21 20 19 18 16 15 14 12 11 10 9 8 7 6 6 5 5 4 4 3 2 2 2
8 7 9 8 5 4 2 4 2 3 3 4 3 7 8 3 3 6 9 11 11 10 10 11 10 11 11 11 11 11 11 11 11 10 9 11 16 20 23 26 28 29 31 31 32 32 33 34 34 35 36 37 37 37 37 37 37 37 37 37 37 36 36 36 35 34 33 32 30 28 27 26 25 23 21 20 19 18 16 15 13 12 10 10 9 8 7 7 6 5 4 3 3 2 2 2 2
Wind_Direction
329 323 335 344 347 346 333 64 68 330 79 86 107 96 54 79 93 72 49 35 53 310 282 61 25 37 85 103 106 86 52 28 130 114 144 158 123 124 125 139 155 156 157 161 166 161 155 153 152 151 146 144 140 137 132 125 120 117 112 108 104 103 101 99 98 96 93 89 87 88 91 93 92 90 86 84 79 70 67 68 69 69 65 59 54 51 46 44 43 43 45 46 47 46 50 56 63
345 340 356 349 342 14 311 86 83 348 55 68 32 95 104 72 71 81 83 80 138 237 276 43 44 60 92 111 104 74 40 13 59 95 106 112 116 120 120 141 154 151 152 160 168 164 158 155 155 156 152 149 147 144 138 131 128 122 116 111 109 107 105 102 96 95 96 93 90 88 87 87 88 89 87 84 80 71 68 68 67 67 62 56 51 47 43 41 40 40 45 47 50 52 55 60 70
358 355 360 5 1 61 52 45 79 72 70 95 359 348 100 81 96 113 112 115 190 225 44 34 39 45 71 74 57 67 68 17 50 81 94 100 112 118 123 144 154 150 150 157 168 168 163 158 156 158 154 153 151 147 141 134 132 126 119 113 111 110 108 107 101 100 102 99 90 86 87 83 82 83 86 85 81 74 72 70 61 58 58 56 48 40 37 37 37 37 40 45 53 58 62 65 70
356 360 349 5 36 31 51 48 94 104 98 134 68 1 102 109 126 118 128 127 106 78 61 49 49 24 73 77 52 69 94 16 34 77 112 94 101 115 122 138 152 150 146 154 166 169 167 164 160 159 157 158 153 149 145 140 138 130 122 115 114 116 114 111 106 103 101 99 90 85 87 83 76 75 80 83 83 77 74 72 61 56 55 53 42 35 34 32 34 37 38 41 50 61 65 67 68
352 2 344 11 75 25 74 69 75 90 118 174 117 126 126 125 127 118 142 117 72 81 80 82 84 40 70 66 45 72 340 310 47 69 109 116 107 116 123 137 151 146 145 151 160 166 169 170 165 161 161 162 158 155 153 149 146 138 125 117 117 121 121 117 110 105 102 101 92 85 83 79 73 70 75 83 86 80 75 75 71 66 59 53 40 34 33 31 33 37 40 40 46 58 65 65 65
353 6 14 61 104 143 82 58 55 65 9 160 124 153 140 127 129 129 127 71 51 82 91 75 101 95 72 32 61 83 322 252 92 65 110 123 111 128 133 140 150 146 150 149 151 159 162 169 171 165 163 165 164 160 158 155 153 148 135 127 127 126 124 121 114 110 107 104 98 92 86 81 76 73 77 86 91 87 82 82 79 74 67 61 45 36 34 33 34 36 42 45 48 55 62 63 62
351 1 43 51 8 68 81 98 102 72 356 105 128 148 138 135 135 129 123 79 14 30 75 88 117 98 69 129 79 48 38 72 110 87 114 119 108 134 138 140 149 148 155 156 150 154 153 163 175 173 166 165 166 163 162 160 160 153 141 137 133 130 129 124 118 114 111 110 109 106 99 91 86 84 86 91 97 97 92 88 83 77 71 63 46 39 38 37 37 38 43 49 54 57 60 62 62
353 4 58 70 19 30 85 103 109 126 36 60 128 145 136 136 130 127 136 125 87 17 35 55 103 89 359 70 97 51 59 71 90 102 117 118 110 124 134 139 144 141 152 160 151 152 154 159 173 178 172 165 166 164 163 164 164 153 145 145 137 135 137 131 124 119 117 117 119 118 113 103 96 95 96 99 104 105 97 90 85 80 70 59 47 45 45 44 41 41 44 52 61 62 62 63 63
30 65 39 72 46 36 80 84 74 127 123 89 96 115 124 123 121 124 119 97 132 96 15 356 81 103 129 68 96 108 67 78 96 102 109 119 117 121 127 129 136 135 142 153 149 151 155 161 170 177 175 168 167 164 164 163 161 155 149 148 142 141 139 137 134 126 125 126 126 127 128 119 110 107 107 108 111 110 101 92 89 85 70 57 52 51 50 48 45 43 46 56 68 69 68 67 67
45 66 73 77 48 49 69 82 83 112 140 142 107 112 132 102 96 104 111 108 126 97 358 21 77 115 143 91 105 36 72 97 101 99 106 120 124 129 127 116 120 128 131 138 142 147 152 164 172 177 176 169 167 162 163 159 154 157 153 152 150 145 141 143 140 134 135 134 135 136 139 136 126 119 117 117 116 114 107 99 96 91 73 58 54 52 49 49 48 45 48 59 72 76 75 73 72
40 348 86 79 38 53 127 141 113 127 141 127 75 103 163 98 88 94 109 111 104 86 353 39 85 125 109 85 178 81 97 106 94 97 116 125 131 140 139 125 117 120 125 129 133 137 144 164 177 182 179 170 166 160 160 156 156 160 155 158 155 150 148 146 143 143 142 139 142 143 144 142 136 128 124 125 122 121 115 107 103 92 72 59 54 50 46 49 50 47 49 59 73 79 78 79 78
65 338 61 81 66 115 156 142 140 140 118 102 78 284 95 69 69 90 108 102 86 76 20 30 113 133 91 72 210 117 89 91 86 98 128 134 133 142 148 143 131 121 123 132 135 131 129 157 176 182 181 174 168 161 160 157 161 163 160 162 157 158 154 147 150 149 145 146 149 147 147 146 143 137 130 132 131 130 123 114 109 94 74 60 55 50 47 51 53 50 50 57 71 78 78 80 81
88 18 78 87 195 143 123 130 156 124 80 145 171 233 75 67 63 145 111 88 81 90 25 320 111 94 95 142 168 129 53 77 96 98 122 123 120 136 145 153 150 137 126 132 136 133 135 148 167 179 181 178 173 166 166 164 165 165 165 166 160 163 159 152 156 153 148 152 153 151 149 141 140 142 137 139 141 138 133 126 115 99 77 64 57 50 49 53 55 53 52 55 65 74 77 77 80
94 123 102 101 293 114 120 120 157 113 58 258 199 198 68 87 121 112 101 79 57 135 190 352 100 88 101 133 99 240 338 95 121 106 115 107 99 116 128 146 158 156 142 136 134 135 141 144 158 176 183 184 182 176 173 168 167 168 169 170 165 164 162 158 158 153 150 152 155 154 150 137 131 137 133 137 147 144 139 135 118 104 85 69 58 51 51 55 57 55 53 54 60 67 72 72 74
113 117 93 83 354 29 135 134 150 119 149 248 205 144 74 75 115 81 102 114 80 223 124 36 81 102 147 161 206 224 189 152 138 124 123 106 96 94 100 122 142 154 155 153 145 141 137 139 151 160 175 187 194 194 190 185 176 177 175 173 169 166 161 157 158 151 144 148 157 157 154 147 138 134 128 133 145 144 141 139 126 112 94 77 61 51 56 59 58 58 56 54 56 60 64 67 68
100 97 72 62 344 358 260 130 119 105 199 219 202 117 76 339 59 84 164 135 134 319 66 18 19 88 130 155 184 176 126 142 140 138 134 113 106 97 88 96 106 114 129 143 150 154 145 141 149 152 159 169 183 191 197 199 192 191 185 178 172 172 165 159 157 150 146 144 148 153 149 152 152 140 134 146 148 143 141 143 143 127 108 91 66 56 64 66 62 60 57 55 56 58 59 61 63
59 73 67 45 318 61 336 14 127 149 194 213 232 106 102 310 2 91 266 93 112 52 63 30 13 66 98 121 141 126 116 147 147 150 146 131 123 113 101 96 97 96 98 110 125 152 160 153 153 155 155 156 167 179 193 196 191 198 192 187 178 172 171 168 162 157 162 154 144 151 143 137 135 124 133 155 154 147 145 150 158 140 124 97 69 64 72 71 65 62 57 55 56 60 60 58 58
56 75 79 59 205 59 285 179 163 155 147 192 212 117 119 165 278 99 35 56 92 67 57 60 44 60 97 117 120 105 112 140 153 155 146 142 137 120 111 107 104 98 96 108 119 140 159 160 160 162 159 154 156 167 189 192 187 202 197 192 184 177 175 171 169 171 171 160 154 146 133 135 124 110 122 147 149 149 156 162 165 149 128 94 76 71 77 74 65 62 57 55 55 58 61 58 56
73 102 84 170 192 73 257 146 105 124 152 178 172 104 120 167 181 109 99 288 114 91 49 65 70 68 99 117 115 105 104 116 131 130 116 116 122 113 108 109 108 102 99 113 135 149 158 161 163 167 165 157 152 144 152 167 167 182 195 194 185 181 178 170 169 176 173 159 160 152 148 156 148 135 132 143 146 148 160 169 172 164 130 100 88 77 81 78 65 61 59 56 52 51 53 54 53
87 101 80 245 204 99 28 93 89 115 145 146 134 88 113 178 174 124 176 213 136 147 162 124 131 153 148 129 116 109 101 101 109 111 102 99 102 101 102 104 107 109 110 114 145 169 172 173 170 170 168 162 158 142 131 145 147 153 171 170 176 179 174 172 169 171 171 164 168 171 174 172 163 164 164 165 160 158 166 176 181 174 157 135 109 90 91 87 74 67 62 58 53 48 46 45 45
64 102 147 225 168 94 5 90 91 79 103 125 138 88 90 248 179 150 155 112 282 199 200 194 179 164 158 153 123 112 104 98 101 103 100 99 96 95 98 102 109 115 131 155 190 203 193 186 181 175 172 165 159 152 140 145 155 162 162 149 156 168 166 163 164 172 181 188 188 172 166 167 168 173 177 184 182 177 172 178 187 178 174 171 137 111 106 99 90 82 71 63 57 54 50 44 42
60 73 176 195 108 113 239 112 89 75 79 98 119 105 147 237 190 170 152 177 231 203 211 192 159 150 151 147 127 114 106 101 100 102 99 100 99 96 97 103 115 122 160 182 215 238 223 200 192 182 175 166 158 154 143 142 161 164 163 160 151 155 165 164 166 178 180 186 189 170 159 155 159 164 163 176 181 179 176 179 185 180 179 175 153 136 124 114 106 95 86 71 57 57 55 47 44
86 303 97 48 84 135 206 113 83 87 87 94 134 154 161 79 305 225 165 195 204 158 142 126 126 138 140 131 122 114 112 109 105 107 106 108 106 100 100 100 101 104 144 158 239 244 193 164 186 186 177 167 158 150 137 140 162 159 161 169 161 156 164 163 158 160 160 162 168 169 168 156 150 150 145 161 175 180 190 188 183 169 160 158 143 142 140 129 122 107 98 80 57 53 46 36 33
98 301 340 6 67 125 149 146 135 105 117 171 132 99 157 147 235 255 175 196 156 137 122 115 119 127 129 122 118 120 122 118 112 111 111 115 114 107 105 97 96 103 106 100 264 154 111 120 155 177 175 165 155 148 139 149 163 158 160 167 162 159 156 148 145 144 146 150 151 157 162 161 161 158 154 160 169 173 181 189 183 160 137 141 142 151 158 140 142 138 121 101 64 41 27 25 30
79 130 297 332 4 158 154 151 161 148 175 190 94 341 235 195 188 288 208 183 149 138 124 118 120 118 122 123 124 124 123 123 121 118 115 118 122 118 109 100 100 98 88 60 62 104 104 114 131 161 165 158 155 158 156 158 161 156 156 159 155 154 148 143 149 150 149 152 152 154 160 167 171 170 164 159 161 159 156 169 175 158 142 150 161 168 166 152 157 158 146 131 92 55 36 38 37
199 149 305 336 298 261 167 167 188 187 203 152 127 265 260 240 204 284 208 172 159 134 128 130 123 120 127 131 134 131 129 129 131 128 121 119 121 117 107 104 99 87 88 74 81 100 97 102 118 152 157 157 162 169 163 157 159 153 148 150 150 149 143 141 146 144 146 153 153 153 157 162 167 176 175 164 162 155 152 156 157 155 151 157 168 165 158 162 167 164 154 142 114 90 98 88 60
202 98 352 303 271 276 191 205 215 190 213 176 176 242 272 289 209 252 213 164 157 133 140 148 129 135 138 132 137 136 134 131 134 134 124 119 120 118 114 114 106 99 104 94 91 100 98 104 119 149 157 162 167 163 159 154 153 148 143 145 146 144 141 140 139 133 134 136 134 138 144 142 144 151 150 152 155 150 151 152 146 146 144 143 149 147 150 163 165 160 156 149 133 117 142 122 93
130 71 347 302 288 294 240 226 227 169 224 186 165 236 286 343 237 223 183 162 158 142 153 156 139 145 142 135 136 137 136 132 137 135 126 125 127 128 128 125 121 119 117 105 101 109 110 113 121 143 156 161 158 154 153 147 142 139 139 139 137 135 137 139 136 130 127 122 117 118 118 117 117 117 121 129 139 141 141 141 139 138 135 132 138 146 149 152 149 148 147 146 153 172 171 154 125
97 81 340 301 335 314 245 227 207 155 199 173 134 312 293 225 235 217 157 158 154 143 156 159 151 153 147 142 138 142 139 133 138 135 131 133 136 139 131 130 135 129 122 114 115 125 125 122 125 135 145 153 152 148 146 141 138 136 135 134 131 132 134 136 134 128 126 122 119 117 111 105 101 106 116 121 127 130 127 129 133 132 132 135 138 144 143 138 136 129 121 124 122 121 141 140 123
354 75 146 307 359 316 258 223 165 149 176 152 123 313 275 243 249 201 152 155 142 145 167 167 159 157 156 153 145 153 147 140 141 140 142 141 141 143 133 136 143 134 130 126 126 136 136 130 132 135 139 147 146 143 143 139 138 138 136 134 134 134 135 137 135 130 128 126 125 124 123 120 116 116 120 124 125 125 124 123 123 121 122 130 129 128 125 118 116 108 100 101 96 89 88 83 79
304 341 65 5 16 288 297 326 150 154 235 118 110 235 262 275 275 207 177 162 149 161 182 176 170 168 165 164 155 161 160 152 149 147 149 148 146 146 136 139 146 144 141 132 131 142 143 136 139 139 137 140 141 141 143 140 140 140 136 134 134 134 137 139 135 132 129 125 123 122 124 128 127 124 124 126 124 120 119 114 109 105 103 107 105 102 104 101 100 95 88 90 87 83 81 73 73
63 23 320 340 165 264 315 26 156 157 261 101 114 203 268 277 251 204 199 176 162 170 186 185 179 178 174 174 166 164 164 154 151 151 152 150 151 151 144 145 152 152 146 138 139 147 147 142 145 144 141 143 141 140 142 142 143 142 137 134 136 139 139 138 134 134 131 126 123 119 118 122 120 119 120 121 119 113 110 107 104 104 104 104 101 96 94 90 91 91 83 81 81 80 79 78 86
345 140 255 267 182 269 320 302 205 154 132 182 183 219 272 276 222 193 198 189 179 178 193 195 188 186 181 179 176 169 166 156 152 155 155 153 155 154 151 156 158 151 147 145 145 149 148 147 152 150 148 151 147 143 144 145 143 140 138 137 141 141 137 135 135 136 134 131 128 123 120 120 117 117 118 120 118 112 109 109 108 110 109 106 103 97 92 84 81 81 74 67 67 70 73 77 84
315 153 237 252 208 226 272 295 277 145 136 202 225 238 251 266 237 198 203 192 188 196 200 199 194 191 187 182 181 178 174 172 167 161 157 155 158 159 158 161 157 148 148 148 147 150 150 149 152 149 146 148 150 149 147 144 141 140 138 138 141 137 132 132 134 136 135 134 132 127 126 124 121 121 121 123 121 115 113 113 111 112 110 107 102 96 90 82 75 73 71 66 62 63 67 70 77
199 182 208 267 270 227 208 259 247 158 162 199 203 240 253 263 263 222 213 195 197 212 208 204 200 192 189 186 185 184 179 181 176 163 157 159 165 163 159 159 154 150 151 151 150 149 150 152 152 148 147 148 146 144 142 139 138 139 137 136 135 131 129 129 130 130 128 130 129 128 128 125 123 122 121 121 119 116 114 112 111 110 109 107 103 97 90 83 78 74 73 71 67 64 62 66 77
174 179 172 206 255 273 229 233 223 171 174 218 205 224 246 254 257 241 223 202 206 224 227 221 210 197 193 192 190 187 184 182 169 162 159 163 168 163 159 160 155 152 153 152 152 149 145 148 149 143 143 146 142 138 137 135 132 132 131 129 127 124 125 125 123 124 123 124 125 126 126 124 122 120 119 119 117 114 111 109 109 107 108 108 102 96 89 83 80 76 73 71 70 68 62 68 84
207 217 215 214 224 273 267 253 247 169 158 238 223 228 250 250 253 249 225 199 210 228 233 227 213 203 197 195 195 187 182 168 158 159 161 163 166 163 161 162 156 150 148 147 148 147 142 143 146 139 135 140 141 138 137 137 136 134 130 126 123 121 123 124 121 121 121 122 123 125 124 122 122 119 117 116 114 112 109 106 106 105 105 103 99 96 92 87 81 77 74 68 67 66 59 60 80
244 244 256 268 243 261 272 267 260 181 174 261 258 252 264 259 256 258 218 185 214 220 219 223 214 207 203 196 195 180 158 147 150 157 160 163 165 165 163 161 158 152 148 149 147 145 141 140 144 140 136 140 142 143 143 143 145 143 137 130 126 124 124 125 123 122 123 123 123 123 123 123 121 118 116 114 111 109 107 103 101 101 102 102 102 101 98 91 82 77 74 70 68 66 59 54 62
233 225 215 257 257 274 293 307 314 195 186 260 285 274 266 263 258 257 225 201 220 217 211 217 209 203 204 195 188 170 154 157 162 163 164 167 167 166 164 160 162 158 152 152 150 145 142 142 143 142 144 145 146 150 152 149 145 143 140 135 133 129 125 125 125 124 125 124 123 122 122 122 121 117 116 114 111 108 105 102 100 100 100 101 102 99 94 88 81 78 74 73 74 71 66 58 54
214 182 163 235 252 262 285 297 302 279 229 253 295 289 267 266 264 256 238 219 229 229 219 223 214 206 205 196 187 174 168 170 170 170 168 169 171 170 167 163 163 161 156 156 153 150 148 148 148 148 150 153 154 155 154 149 143 140 139 136 136 132 126 126 125 123 125 124 122 122 122 121 120 117 115 112 110 107 105 104 102 100 99 98 98 94 90 85 82 80 76 76 75 74 73 65 60
255 192 185 218 239 221 229 273 320 328 326 332 332 311 276 254 251 255 257 235 240 242 227 230 232 221 205 191 189 180 174 172 169 171 172 172 175 174 170 167 166 163 161 160 158 157 155 155 155 155 156 158 160 159 154 150 145 140 136 133 132 129 125 127 125 121 122 122 121 121 120 120 119 116 114 111 109 107 105 103 101 100 98 96 94 91 90 87 83 81 77 75 73 75 78 73 69
276 238 205 212 224 229 238 296 17 7 321 312 59 319 282 262 241 254 285 285 243 238 221 226 227 217 196 185 186 180 174 174 170 169 171 172 175 175 172 170 168 166 166 164 164 164 162 161 160 161 162 163 164 164 160 157 154 148 143 139 134 130 126 125 124 122 121 121 121 120 120 120 118 116 114 111 109 107 104 103 101 100 98 95 93 91 90 87 83 80 76 75 73 73 77 78 75
250 248 205 208 219 232 245 266 27 280 269 288 91 162 274 285 258 250 260 257 252 246 233 233 226 212 203 191 182 175 172 172 171 168 169 172 174 174 174 174 172 170 168 166 167 170 168 166 165 165 167 167 167 166 162 160 157 154 152 147 140 136 130 125 126 125 123 123 122 122 121 120 118 116 114 111 109 107 105 104 102 100 98 95 93 90 88 85 83 80 75 74 74 69 68 73 74
231 246 170 170 196 216 226 193 176 218 255 319 4 131 271 281 261 241 235 243 259 259 246 243 230 216 210 195 182 177 175 171 167 168 171 175 177 177 176 174 175 173 169 168 168 169 170 169 168 168 167 166 165 163 161 160 159 157 153 146 140 137 132 128 128 127 126 127 125 124 123 121 120 117 115 113 111 109 106 104 102 99 97 94 91 88 88 86 83 81 76 72 72 68 64 68 70
240 230 134 125 150 159 134 115 138 310 4 306 292 111 269 273 262 250 226 225 253 254 245 243 229 212 203 193 184 176 173 171 168 169 172 175 178 178 175 173 174 172 168 168 168 168 170 170 169 167 165 164 162 160 158 159 162 159 152 145 139 135 132 130 130 129 130 130 128 126 125 123 121 119 117 115 112 110 107 104 102 98 96 94 91 89 89 86 82 79 76 72 70 70 68 67 70
216 142 89 68 72 76 71 83 77 27 333 247 227 166 248 269 245 212 204 208 237 245 246 244 222 203 195 186 179 170 167 168 168 168 169 172 174 173 172 171 172 171 169 168 168 168 169 169 166 163 162 160 158 156 157 159 162 159 153 147 140 136 134 133 133 132 133 133 130 129 128 126 124 121 119 117 114 112 108 105 102 98 97 95 92 91 89 86 83 81 79 77 74 75 74 71 74
138 90 60 39 22 32 40 45 72 37 277 226 203 192 204 269 266 194 206 215 216 228 250 252 212 186 189 185 179 174 169 165 164 161 160 164 166 167 168 169 170 170 169 169 168 169 169 166 162 158 158 159 158 159 161 161 162 159 155 150 145 141 140 138 137 136 136 136 133 131 130 128 126 125 123 120 117 114 110 107 104 101 100 98 95 93 91 89 87 86 85 81 78 77 78 78 80
108 90 80 62 350 14 20 4 53 220 255 221 208 198 192 236 259 238 254 250 214 207 227 235 209 192 193 189 183 177 169 163 159 155 155 157 158 162 166 167 169 169 170 169 169 170 169 167 163 158 159 163 164 165 166 165 166 162 157 153 149 147 146 145 143 141 141 139 136 135 134 132 130 128 127 124 121 118 114 111 109 107 103 100 97 95 94 93 91 89 85 82 81 83 86 88 88
94 108 111 118 291 356 1 311 165 227 253 246 212 187 200 237 250 261 268 269 252 225 219 215 200 197 196 189 183 175 166 162 160 159 161 161 162 165 167 168 170 171 171 170 170 171 171 170 168 163 162 167 168 168 169 168 170 166 158 154 152 150 150 149 147 146 145 143 141 140 138 136 135 133 131 127 125 123 120 117 113 108 104 101 99 98 98 96 93 89 87 88 89 92 93 92 92
149 141 140 158 173 217 256 243 252 257 262 276 194 159 234 272 261 241 244 258 262 236 233 227 201 195 193 185 175 167 166 165 165 165 165 167 169 169 170 171 172 172 172 172 172 172 172 172 172 167 165 168 170 170 171 171 172 168 161 157 156 154 153 152 151 149 148 146 145 143 142 141 139 137 134 131 130 128 124 119 113 108 106 105 104 103 101 99 96 93 93 94 94 94 95 92 88
180 153 137 157 160 180 221 205 220 255 272 294 282 159 201 216 248 240 241 271 295 299 279 245 206 189 168 157 155 159 170 171 167 167 167 169 171 172 174 175 175 174 173 173 174 174 173 172 174 170 166 169 171 171 172 172 171 168 164 161 160 159 158 156 154 152 150 149 148 146 145 144 142 139 137 134 134 132 125 119 115 112 111 111 109 107 105 104 102 97 94 93 93 93 92 89 86
224 122 116 178 185 183 226 210 188 196 290 283 220 215 221 209 260 268 259 292 318 336 321 203 174 150 133 147 162 168 175 174 169 167 166 169 172 174 177 178 179 177 175 175 175 175 174 173 174 172 169 170 173 173 173 173 171 168 166 165 164 163 161 158 156 155 153 152 151 149 148 147 145 142 139 137 135 131 125 122 120 118 116 115 113 111 108 104 100 95 92 90 92 93 90 88 88
169 137 170 201 183 166 210 276 340 66 274 257 197 246 289 304 275 251 215 251 280 297 289 215 183 158 157 174 178 177 180 176 174 171 168 170 172 177 180 181 182 179 177 178 177 177 177 174 173 172 170 171 173 173 173 171 170 168 168 168 167 166 164 161 159 158 156 155 154 153 151 149 147 144 141 139 136 131 129 127 125 121 119 116 113 109 104 99 96 94 94 94 97 98 99 102 94
133 182 199 149 56 102 126 260 342 20 263 266 205 236 265 262 268 262 162 219 256 254 242 226 209 184 188 194 185 185 182 173 174 171 168 172 174 179 183 184 185 182 180 179 178 179 179 177 175 173 171 172 173 173 172 171 170 169 169 170 170 168 166 165 163 161 160 158 157 156 154 151 148 145 142 141 138 136 134 131 126 121 118 114 109 105 100 96 99 103 106 109 114 118 121 117 103
134 190 189 126 124 202 126 172 225 197 254 285 247 230 234 209 222 220 166 207 235 239 222 211 215 204 202 199 187 186 176 169 177 175 174 177 179 182 183 183 184 183 182 180 179 179 179 179 178 176 174 173 172 172 171 171 171 171 171 172 172 171 169 169 167 165 163 162 160 158 156 153 149 148 146 144 143 140 136 131 126 120 118 116 111 109 107 107 111 118 129 134 138 143 145 136 120
45 106 164 125 140 173 166 177 170 162 225 280 276 242 241 220 200 184 195 207 218 222 208 210 220 210 201 196 186 185 183 182 184 182 183 182 182 184 183 182 182 182 182 180 179 180 179 178 178 176 174 172 172 173 171 171 173 172 173 173 173 173 173 173 171 168 166 165 163 161 158 155 153 151 150 148 146 141 135 131 127 124 121 119 118 118 120 127 136 144 150 152 158 162 159 157 154
156 148 174 186 115 122 182 213 153 145 183 230 268 273 268 243 196 187 196 207 212 211 203 213 223 210 200 196 188 187 188 189 188 184 185 182 180 181 180 180 181 180 180 180 179 180 179 178 178 176 174 173 173 174 174 173 174 174 175 175 176 176 176 175 173 171 169 167 165 163 161 159 156 155 154 152 147 141 136 132 129 127 125 123 125 129 135 145 154 159 161 162 166 171 174 172 173
175 178 184 183 165 141 181 244 208 153 196 190 215 273 265 235 210 201 197 204 210 208 207 218 219 206 203 198 190 191 188 187 190 184 181 177 174 175 175 177 179 178 179 179 179 180 179 179 179 177 175 175 175 175 176 176 175 176 177 177 178 178 178 176 174 172 171 168 167 165 164 162 159 158 158 155 149 143 139 136 133 131 131 131 132 138 145 153 158 161 164 169 177 184 201 197 186